Location: Unspecified
(34.6610°N, 0.0000°E)
Time: 02:51:22
(UTC+00:00)

Sep Motor Cover - Visible Passes

Search period start: 04 April 2026 00:00
Search period end: 14 April 2026 00:00
Orbit: 836 x 1108 km, 71.0° (Epoch: 29 March)

Date Brightness Start Highest point End Pass type
(mag) Time Alt. Az. Time Alt. Az. Time Alt. Az.
4 Apr ? 21:21:14 10° NNE 21:22:43 12° NE 21:22:43 12° NE visible
4 Apr ? 23:05:39 10° NNW 23:07:18 19° NNW 23:07:18 19° NNW visible
5 Apr ? 21:44:12 10° N 21:46:49 19° NNE 21:46:49 19° NNE visible
5 Apr ? 23:30:25 10° NNW 23:31:24 15° NW 23:31:24 15° NW visible
6 Apr ? 22:08:06 10° N 22:10:57 25° N 22:10:57 25° N visible
7 Apr ? 20:47:57 10° NNE 20:50:31 13° NE 20:50:31 13° NE visible
7 Apr ? 22:32:28 10° NNW 22:35:06 25° NNW 22:35:06 25° NNW visible
8 Apr ? 21:10:58 10° N 21:14:41 23° NE 21:14:41 23° NE visible
8 Apr ? 22:57:16 10° NNW 22:59:16 20° NW 22:59:16 20° NW visible
9 Apr ? 21:34:54 10° N 21:38:52 33° NNE 21:38:52 33° NNE visible
9 Apr ? 23:22:42 10° NW 23:23:28 13° NW 23:23:28 13° NW visible
10 Apr ? 20:14:40 10° NNE 20:17:56 14° NE 20:18:31 14° NE visible
10 Apr ? 21:59:16 10° NNW 22:03:06 37° NNW 22:03:06 37° NNW visible
11 Apr ? 20:37:45 10° N 20:42:46 25° NE 20:42:46 25° NE visible
11 Apr ? 22:24:06 10° NNW 22:27:21 28° NW 22:27:21 28° NW visible
12 Apr ? 21:01:41 10° N 21:07:03 44° NE 21:07:03 44° NE visible
12 Apr ? 22:49:36 10° NW 22:51:38 17° WNW 22:51:38 17° WNW visible
13 Apr ? 19:41:23 10° NNE 19:44:43 14° NE 19:46:46 12° ENE visible
13 Apr ? 21:26:05 10° NNW 21:31:22 60° NNW 21:31:22 60° NNW visible
